Location: Centerville
(32.8776°N, 96.6203°W)
Time: 10:28:53
(UTC+00:00)

Cosmos 2237 - Pass Details

Date: 27 October 2021
Orbit: 845 x 856 km, 70.8° (Epoch: 08 December)

Event Time Altitude Azimuth Distance (km) Brightness Sun altitude
Rises 01:28:21 0° 240° (WSW) 3,407 8.3 -23.2°
Reaches altitude 10° 01:31:33 10° 258° (WSW) 2,477 7.7 -23.8°
Maximum altitude 01:35:27 19° 302° (WNW) 1,938 6.7 -24.7°
Drops below altitude 10° 01:39:23 10° 346° (NNW) 2,489 6.8 -25.5°
Sets 01:42:38 0° 4° (N) 3,430 7.3 -26.2°
